Location: Newark
(34.9471°N, 136.1778°E)
Time: 12:27:47
(UTC+00:00)

METEOR M2 - Pass Details

Date: 25 February 2020
Orbit: 818 x 828 km, 98.5° (Epoch: 05 April)

Event Time Altitude Azimuth Distance (km) Brightness Sun altitude
Exits shadow 12:13:19 - 243° (WSW) 2,543 ? -42.5°
Reaches altitude 10° 12:14:11 10° 252° (WSW) 2,425 ? -42.7°
Maximum altitude 12:15:47 11° 269° (W) 2,339 ? -43.0°
Drops below altitude 10° 12:17:23 10° 287° (WNW) 2,431 ? -43.3°
Sets 12:21:45 0° 321° (NW) 3,371 ? -44.1°
